ARIANE 42P DEB, 44514

Orbit data source: Space-Track

ARIANE 42P DEB, 44514 is space debris in LEO originally from a launch on Mon, 10 Aug 1992 UTC launched from the French Guiana (FRGUI). Debris objects in space refer to the collection of defunct objects orbiting the Earth. Examples of debris include non-operational satellites, rocket bodies, and fragments generated from explosions, collisions, or faulty payload assembly.

Loading next visibility...
Identifier
44514, 1992-052M
Orbit
LEO
Last TLE update
17 hours ago
Origin
Manufacturer
ArianeGroup
Mission
Spacecraft
Bus & Motor
Unknown
Mass
Unknown
Launch date (UTC)
1992-08-10 (33 years ago)
Launch vehicle
Unknown
Launch site
French Guiana (FRGUI)
Object type
Payload
Rocket body
Debris
Shape & HBR
Unknown
Radar Cross Section
Small (<0.1 m²)

Expand to show TLE details & history

TLE from 17 hours ago
0 ARIANE 42P DEB
1 44514U 92052M   25132.80504788  .00006884  00000-0  21359-1 0  9996
2 44514  65.7864 265.2092 0250749 177.1162 183.1375 12.95317320269855
Epoch: 2025-05-12T19:19Z
Definitive object data (Epoch: 2025-05-12T19:19:16.136Z)
Latitude
-0.00004°
Longitude
104.57908°
Altitude
1,474.183 km
Speed
7.037 km/s
True Right ascension
17h 40m 50s
True Declination
0° 00' 00"
Sunlit
Object was in full shadow at TLE epoch
Visualization TLE readout
Latitude
-26.68488°
Longitude
90.0973°
Altitude
1,460.936 km
Speed
7.051 km/s
Apparent Right ascension
13h 47m 15s
Apparent Declination
-53° 14' 16"
Sunlit
Object is in full shadow
Visualization observer readout
Local Sidereal Time
20:15:51
Azimuth
226.343° WSW
Elevation
-34.834°
Doppler factor
1
Orbital elements
Apogee altitude
1,471.075 km
Perigee altitude
1,087.068 km
Semi-major axis
7,657.209 km
Eccentricity
0.0250749
Inclination
65.7864°
RAAN
265.2092°
Arg. of periapsis
177.1162°
True anomaly
182.98501°
Mean anomaly
183.1375°
Eccentric anomaly
183.06079°
Mean motion
3.2392 °/min
BSTAR
0.021359
Orbital period
111.14 mins
Loading maneuver chart data...
Loading SW <> Apogee altitude chart data...
Loading historical data...
Loading historical data...
Loading historical data...
Loading historical data...
Loading historical data...
Loading historical data...
Loading historical data...

ARIANE 42P DEB Visibility forecast

Observer location: undefined°, undefined°

Span
Click to sort rows by Start time (UTC) header in descending order
Start Az.
Max El. time (UTC)
Max El. Az.
Max El.
End time (UTC)
End Az.
13 mins2025-05-13 12:11:22.103Z260.792° W2025-05-13 12:18:22.103Z320.61° NNW26.51°2025-05-13 12:24:22.103Z12.873° NNE
11 mins2025-05-13 18:07:22.103Z349.418° N2025-05-13 18:12:22.103Z39.611° NE27.046°2025-05-13 18:18:22.103Z102.606° ESE
12 mins2025-05-13 20:02:22.103Z318.651° NNW2025-05-13 20:07:22.103Z256.741° W40.333°2025-05-13 20:14:22.103Z168.805° S
9 mins2025-05-14 08:30:22.103Z137.236° SSE2025-05-14 08:34:22.103Z106.115° ESE19.144°2025-05-14 08:39:22.103Z66.053° ENE
15 mins2025-05-14 10:21:22.103Z209.761° SW2025-05-14 10:28:22.103Z257.578° W44.952°2025-05-14 10:36:22.103Z30.184° NE
|